Location: La Brionne
(46.1728°N, 1.7849°E)
Time: 02:13:25
(UTC+00:00)

Cosmos 2219 Rocket - Pass Details

Date: 28 October 2021
Orbit: 827 x 848 km, 71.0° (Epoch: 26 November)

Event Time Altitude Azimuth Distance (km) Brightness Sun altitude
Rises 20:33:01 0° 253° (WSW) 3,366 5.9 -39.5°
Reaches altitude 10° 20:36:09 10° 271° (W) 2,439 5.2 -40.0°
Maximum altitude 20:40:07 19° 316° (NW) 1,872 4.5 -40.6°
Enters shadow 20:40:36 19° 323° (NW) 1,883 4.4 -40.7°
